"Time","Value","Approval","myLocation"
"2023-04-21 00:00",16.8113536317894,"Approved","OW301"
"2023-04-21 01:00",16.8113544058831,"Approved","OW301"
"2023-04-21 02:00",16.8113551799768,"Approved","OW301"
"2023-04-21 03:00",16.8133559540704,"Approved","OW301"
"2023-04-21 04:00",16.8233567281641,"Approved","OW301"
"2023-04-21 05:00",16.8353575022578,"Approved","OW301"
"2023-04-21 06:00",16.8313582763514,"Approved","OW301"
"2023-04-21 07:00",16.8333590504451,"Approved","OW301"
"2023-04-21 08:00",16.8363598245388,"Approved","OW301"
"2023-04-21 09:00",16.8403605986324,"Approved","OW301"
"2023-04-21 10:00",16.8423613727261,"Approved","OW301"
"2023-04-21 11:00",16.8443621468198,"Approved","OW301"
"2023-04-21 12:00",16.8453629209134,"Approved","OW301"
"2023-04-21 13:00",16.8493636950071,"Approved","OW301"
"2023-04-21 14:00",16.8563644691008,"Approved","OW301"
"2023-04-21 15:00",16.8613652431944,"Approved","OW301"
"2023-04-21 16:00",16.8543660172881,"Approved","OW301"
"2023-04-21 17:00",16.8533667913818,"Approved","OW301"
"2023-04-21 18:00",16.8513675654754,"Approved","OW301"
"2023-04-21 19:00",16.8503683395691,"Approved","OW301"
"2023-04-21 20:00",16.8483691136628,"Approved","OW301"
"2023-04-21 21:00",16.8463698877564,"Approved","OW301"
"2023-04-21 22:00",16.8443706618501,"Approved","OW301"
"2023-04-21 23:00",16.8423714359438,"Approved","OW301"
"2023-04-22 00:00",16.8413722100374,"Approved","OW301"
"2023-04-22 01:00",16.8463729841311,"Approved","OW301"
"2023-04-22 02:00",16.8413737582247,"Approved","OW301"
"2023-04-22 03:00",16.8353745323184,"Approved","OW301"
"2023-04-22 04:00",16.8383753064121,"Approved","OW301"
"2023-04-22 05:00",16.8363760805057,"Approved","OW301"
"2023-04-22 06:00",16.8333768545994,"Approved","OW301"
"2023-04-22 07:00",16.8293776286931,"Approved","OW301"
"2023-04-22 08:00",16.8273784027867,"Approved","OW301"
"2023-04-22 09:00",16.8253791768804,"Approved","OW301"
"2023-04-22 10:00",16.8213799509741,"Approved","OW301"
"2023-04-22 11:00",16.8183807250677,"Approved","OW301"
"2023-04-22 12:00",16.8163814991614,"Approved","OW301"
"2023-04-22 13:00",16.8133822732551,"Approved","OW301"
"2023-04-22 14:00",16.8193830473487,"Approved","OW301"
"2023-04-22 15:00",16.8133838214424,"Approved","OW301"
"2023-04-22 16:00",16.8163845955361,"Approved","OW301"
"2023-04-22 17:00",16.8113853696297,"Approved","OW301"
"2023-04-22 18:00",16.8143861437234,"Approved","OW301"
"2023-04-22 19:00",16.8103869178171,"Approved","OW301"
"2023-04-22 20:00",16.8083876919107,"Approved","OW301"
"2023-04-22 21:00",16.8023884660044,"Approved","OW301"
"2023-04-22 22:00",16.7983892400981,"Approved","OW301"
"2023-04-22 23:00",16.7953900141917,"Approved","OW301"
"2023-04-23 00:00",16.7913907882854,"Approved","OW301"
"2023-04-23 01:00",16.7913915623791,"Approved","OW301"
"2023-04-23 02:00",16.7893923364727,"Approved","OW301"
"2023-04-23 03:00",16.7853931105664,"Approved","OW301"
"2023-04-23 04:00",16.78739388466,"Approved","OW301"
"2023-04-23 05:00",16.7853946587537,"Approved","OW301"
"2023-04-23 06:00",16.7863954328474,"Approved","OW301"
"2023-04-23 07:00",16.781396206941,"Approved","OW301"
"2023-04-23 08:00",16.7833969810347,"Approved","OW301"
"2023-04-23 09:00",16.7793977551284,"Approved","OW301"
"2023-04-23 10:00",16.777398529222,"Approved","OW301"
"2023-04-23 11:00",16.7763993033157,"Approved","OW301"
"2023-04-23 12:00",16.7784000774094,"Approved","OW301"
"2023-04-23 13:00",16.780400851503,"Approved","OW301"
"2023-04-23 14:00",16.7844016255967,"Approved","OW301"
"2023-04-23 15:00",16.7864023996904,"Approved","OW301"
"2023-04-23 16:00",16.797403173784,"Approved","OW301"
"2023-04-23 17:00",16.7974039478777,"Approved","OW301"
"2023-04-23 18:00",16.8024047219714,"Approved","OW301"
"2023-04-23 19:00",16.806405496065,"Approved","OW301"
"2023-04-23 20:00",16.8064062701587,"Approved","OW301"
"2023-04-23 21:00",16.8084070442524,"Approved","OW301"
"2023-04-23 22:00",16.808407818346,"Approved","OW301"
"2023-04-23 23:00",16.8074085924397,"Approved","OW301"
"2023-04-24 00:00",16.8134093665333,"Approved","OW301"
"2023-04-24 01:00",16.803410140627,"Approved","OW301"
"2023-04-24 02:00",16.8004109147207,"Approved","OW301"
"2023-04-24 03:00",16.7954116888143,"Approved","OW301"
"2023-04-24 04:00",16.799412462908,"Approved","OW301"
"2023-04-24 05:00",16.8024132370017,"Approved","OW301"
"2023-04-24 06:00",16.7994140110953,"Approved","OW301"
"2023-04-24 07:00",16.799414785189,"Approved","OW301"
"2023-04-24 08:00",16.8004155592827,"Approved","OW301"
"2023-04-24 09:00",16.8034163333763,"Approved","OW301"
"2023-04-24 10:00",16.80641710747,"Approved","OW301"
"2023-04-24 11:00",16.8084178815637,"Approved","OW301"
"2023-04-24 12:00",16.8144186556573,"Approved","OW301"
"2023-04-24 13:00",16.815419429751,"Approved","OW301"
"2023-04-24 14:00",16.8234202038447,"Approved","OW301"
"2023-04-24 15:00",16.8234209779383,"Approved","OW301"
"2023-04-24 16:00",16.831421752032,"Approved","OW301"
"2023-04-24 17:00",16.8284225261257,"Approved","OW301"
"2023-04-24 18:00",16.8294233002193,"Approved","OW301"
"2023-04-24 19:00",16.828424074313,"Approved","OW301"
"2023-04-24 20:00",16.8244248484067,"Approved","OW301"
"2023-04-24 21:00",16.8224256225003,"Approved","OW301"
"2023-04-24 22:00",16.822426396594,"Approved","OW301"
"2023-04-24 23:00",16.8224271706877,"Approved","OW301"
"2023-04-25 00:00",16.8164279447813,"Approved","OW301"
"2023-04-25 01:00",16.819428718875,"Approved","OW301"
"2023-04-25 02:00",16.8174294929686,"Approved","OW301"
"2023-04-25 03:00",16.8214302670623,"Approved","OW301"
"2023-04-25 04:00",16.820431041156,"Approved","OW301"
"2023-04-25 05:00",16.8224318152496,"Approved","OW301"
"2023-04-25 06:00",16.8164325893433,"Approved","OW301"
"2023-04-25 07:00",16.816433363437,"Approved","OW301"
"2023-04-25 08:00",16.8144341375306,"Approved","OW301"
"2023-04-25 09:00",16.8104349116243,"Approved","OW301"
"2023-04-25 10:00",16.817435685718,"Approved","OW301"
"2023-04-25 11:00",16.8114364598116,"Approved","OW301"
"2023-04-25 12:00",16.8124372339053,"Approved","OW301"
"2023-04-25 13:00",16.810438007999,"Approved","OW301"
"2023-04-25 14:00",16.8114387820926,"Approved","OW301"
"2023-04-25 15:00",16.8154395561863,"Approved","OW301"
"2023-04-25 16:00",16.81044033028,"Approved","OW301"
"2023-04-25 17:00",16.8064411043736,"Approved","OW301"
"2023-04-25 18:00",16.8034418784673,"Approved","OW301"
"2023-04-25 19:00",16.805442652561,"Approved","OW301"
"2023-04-25 20:00",16.8004434266546,"Approved","OW301"
"2023-04-25 21:00",16.7994442007483,"Approved","OW301"
"2023-04-25 22:00",16.797444974842,"Approved","OW301"
"2023-04-25 23:00",16.7924457489356,"Approved","OW301"
"2023-04-26 00:00",16.7934465230293,"Approved","OW301"
"2023-04-26 01:00",16.789447297123,"Approved","OW301"
"2023-04-26 02:00",16.7884480712166,"Approved","OW301"
"2023-04-26 03:00",16.7934488453103,"Approved","OW301"
"2023-04-26 04:00",16.7934496194039,"Approved","OW301"
"2023-04-26 05:00",16.7944503934976,"Approved","OW301"
"2023-04-26 06:00",16.7894511675913,"Approved","OW301"
"2023-04-26 07:00",16.7894519416849,"Approved","OW301"
"2023-04-26 08:00",16.7884527157786,"Approved","OW301"
"2023-04-26 09:00",16.7834534898723,"Approved","OW301"
"2023-04-26 10:00",16.7824542639659,"Approved","OW301"
"2023-04-26 11:00",16.7784550380596,"Approved","OW301"
"2023-04-26 12:00",16.7784558121533,"Approved","OW301"
"2023-04-26 13:00",16.7794565862469,"Approved","OW301"
"2023-04-26 14:00",16.7884573603406,"Approved","OW301"
"2023-04-26 15:00",16.7824581344343,"Approved","OW301"
"2023-04-26 16:00",16.7794589085279,"Approved","OW301"
"2023-04-26 17:00",16.7834596826216,"Approved","OW301"
"2023-04-26 18:00",16.7854604567153,"Approved","OW301"
"2023-04-26 19:00",16.7844612308089,"Approved","OW301"
"2023-04-26 20:00",16.7764620049026,"Approved","OW301"
"2023-04-26 21:00",16.7754627789963,"Approved","OW301"
"2023-04-26 22:00",16.7754635530899,"Approved","OW301"
"2023-04-26 23:00",16.7734643271836,"Approved","OW301"
"2023-04-27 00:00",16.7734651012773,"Approved","OW301"
"2023-04-27 01:00",16.7714658753709,"Approved","OW301"
"2023-04-27 02:00",16.7764666494646,"Approved","OW301"
"2023-04-27 03:00",16.7754674235583,"Approved","OW301"
"2023-04-27 04:00",16.7784681976519,"Approved","OW301"
"2023-04-27 05:00",16.7814689717456,"Approved","OW301"
"2023-04-27 06:00",16.7764697458392,"Approved","OW301"
"2023-04-27 07:00",16.7794705199329,"Approved","OW301"
"2023-04-27 08:00",16.7784712940266,"Approved","OW301"
"2023-04-27 09:00",16.7814720681202,"Approved","OW301"
"2023-04-27 10:00",16.7774728422139,"Approved","OW301"
"2023-04-27 11:00",16.7774736163076,"Approved","OW301"
"2023-04-27 12:00",16.7784743904012,"Approved","OW301"
"2023-04-27 13:00",16.7794751644949,"Approved","OW301"
"2023-04-27 14:00",16.7864759385886,"Approved","OW301"
"2023-04-27 15:00",16.7864767126822,"Approved","OW301"
"2023-04-27 16:00",16.7854774867759,"Approved","OW301"
"2023-04-27 17:00",16.7824782608696,"Approved","OW301"
"2023-04-27 18:00",16.7784790349632,"Approved","OW301"
"2023-04-27 19:00",16.7744798090569,"Approved","OW301"
"2023-04-27 20:00",16.7694805831506,"Approved","OW301"
"2023-04-27 21:00",16.7634813572442,"Approved","OW301"
"2023-04-27 22:00",16.7614821313379,"Approved","OW301"
"2023-04-27 23:00",16.7594829054316,"Approved","OW301"
"2023-04-28 00:00",16.7614836795252,"Approved","OW301"
"2023-04-28 01:00",16.7664844536189,"Approved","OW301"
"2023-04-28 02:00",16.7584852277126,"Approved","OW301"
"2023-04-28 03:00",16.7564860018062,"Approved","OW301"
"2023-04-28 04:00",16.7564867758999,"Approved","OW301"
"2023-04-28 05:00",16.7584875499935,"Approved","OW301"
"2023-04-28 06:00",16.7574883240872,"Approved","OW301"
"2023-04-28 07:00",16.7544890981809,"Approved","OW301"
"2023-04-28 08:00",16.7544898722745,"Approved","OW301"
"2023-04-28 09:00",16.7554906463682,"Approved","OW301"
"2023-04-28 10:00",16.7574914204619,"Approved","OW301"
"2023-04-28 11:00",16.7544921945555,"Approved","OW301"
"2023-04-28 12:00",16.7514929686492,"Approved","OW301"
"2023-04-28 13:00",16.7544937427429,"Approved","OW301"
"2023-04-28 14:00",16.7574945168365,"Approved","OW301"
"2023-04-28 15:00",16.7574952909302,"Approved","OW301"
"2023-04-28 16:00",16.7524960650239,"Approved","OW301"
"2023-04-28 17:00",16.7504968391175,"Approved","OW301"
"2023-04-28 18:00",16.7464976132112,"Approved","OW301"
"2023-04-28 19:00",16.7414983873049,"Approved","OW301"
"2023-04-28 20:00",16.7364991613985,"Approved","OW301"
"2023-04-28 21:00",16.7344999354922,"Approved","OW301"
"2023-04-28 22:00",16.7325007095859,"Approved","OW301"
"2023-04-28 23:00",16.7295014836795,"Approved","OW301"
"2023-04-29 00:00",16.7305022577732,"Approved","OW301"
"2023-04-29 01:00",16.7285030318669,"Approved","OW301"
"2023-04-29 02:00",16.7295038059605,"Approved","OW301"
"2023-04-29 03:00",16.7305045800542,"Approved","OW301"
"2023-04-29 04:00",16.7345053541479,"Approved","OW301"
"2023-04-29 05:00",16.7375061282415,"Approved","OW301"
"2023-04-29 06:00",16.7405069023352,"Approved","OW301"
"2023-04-29 07:00",16.7405076764288,"Approved","OW301"
"2023-04-29 08:00",16.7435084505225,"Approved","OW301"
"2023-04-29 09:00",16.7425092246162,"Approved","OW301"
"2023-04-29 10:00",16.7445099987098,"Approved","OW301"
"2023-04-29 11:00",16.7435107728035,"Approved","OW301"
"2023-04-29 12:00",16.7455115468972,"Approved","OW301"
"2023-04-29 13:00",16.7525123209908,"Approved","OW301"
"2023-04-29 14:00",16.7525130950845,"Approved","OW301"
"2023-04-29 15:00",16.7535138691782,"Approved","OW301"
"2023-04-29 16:00",16.7535146432718,"Approved","OW301"
"2023-04-29 17:00",16.7515154173655,"Approved","OW301"
"2023-04-29 18:00",16.7495161914592,"Approved","OW301"
"2023-04-29 19:00",16.7475169655528,"Approved","OW301"
"2023-04-29 20:00",16.7435177396465,"Approved","OW301"
"2023-04-29 21:00",16.7385185137402,"Approved","OW301"
"2023-04-29 22:00",16.7385192878338,"Approved","OW301"
"2023-04-29 23:00",16.7365200619275,"Approved","OW301"
"2023-04-30 00:00",16.7315208360212,"Approved","OW301"
"2023-04-30 01:00",16.7335216101148,"Approved","OW301"
"2023-04-30 02:00",16.7295223842085,"Approved","OW301"
"2023-04-30 03:00",16.7335231583022,"Approved","OW301"
"2023-04-30 04:00",16.7335239323958,"Approved","OW301"
"2023-04-30 05:00",16.7365247064895,"Approved","OW301"
"2023-04-30 06:00",16.7385254805831,"Approved","OW301"
"2023-04-30 07:00",16.7385262546768,"Approved","OW301"
"2023-04-30 08:00",16.7365270287705,"Approved","OW301"
"2023-04-30 09:00",16.7355278028641,"Approved","OW301"
"2023-04-30 10:00",16.7365285769578,"Approved","OW301"
"2023-04-30 11:00",16.7375293510515,"Approved","OW301"
"2023-04-30 12:00",16.7385301251451,"Approved","OW301"
"2023-04-30 13:00",16.7415308992388,"Approved","OW301"
"2023-04-30 14:00",16.7415316733325,"Approved","OW301"
"2023-04-30 15:00",16.7425324474261,"Approved","OW301"
"2023-04-30 16:00",16.7465332215198,"Approved","OW301"
"2023-04-30 17:00",16.7445339956135,"Approved","OW301"
"2023-04-30 18:00",16.7465347697071,"Approved","OW301"
"2023-04-30 19:00",16.7445355438008,"Approved","OW301"
"2023-04-30 20:00",16.7525363178945,"Approved","OW301"
"2023-04-30 21:00",16.7425370919881,"Approved","OW301"
"2023-04-30 22:00",16.7405378660818,"Approved","OW301"
"2023-04-30 23:00",16.7385386401755,"Approved","OW301"
"2023-05-01 00:00",16.7405394142691,"Approved","OW301"
"2023-05-01 01:00",16.7395401883628,"Approved","OW301"
"2023-05-01 02:00",16.7405409624565,"Approved","OW301"
"2023-05-01 03:00",16.7395417365501,"Approved","OW301"
"2023-05-01 04:00",16.7385425106438,"Approved","OW301"
"2023-05-01 05:00",16.7405432847375,"Approved","OW301"
"2023-05-01 06:00",16.7405440588311,"Approved","OW301"
"2023-05-01 07:00",16.7405448329248,"Approved","OW301"
"2023-05-01 08:00",16.7405456070184,"Approved","OW301"
"2023-05-01 09:00",16.7405463811121,"Approved","OW301"
"2023-05-01 10:00",16.7395471552058,"Approved","OW301"
"2023-05-01 11:00",16.7385479292994,"Approved","OW301"
"2023-05-01 12:00",16.7365487033931,"Approved","OW301"
"2023-05-01 13:00",16.7435494774868,"Approved","OW301"
"2023-05-01 14:00",16.7375502515804,"Approved","OW301"
"2023-05-01 15:00",16.7495510256741,"Approved","OW301"
"2023-05-01 16:00",16.7405517997678,"Approved","OW301"
"2023-05-01 17:00",16.7395525738614,"Approved","OW301"
"2023-05-01 18:00",16.7395533479551,"Approved","OW301"
"2023-05-01 19:00",16.7375541220488,"Approved","OW301"
"2023-05-01 20:00",16.7375548961424,"Approved","OW301"
"2023-05-01 21:00",16.7335556702361,"Approved","OW301"
"2023-05-01 22:00",16.7355564443298,"Approved","OW301"
"2023-05-01 23:00",16.7355572184234,"Approved","OW301"
"2023-05-02 00:00",16.7355579925171,"Approved","OW301"
"2023-05-02 01:00",16.7375587666108,"Approved","OW301"
"2023-05-02 02:00",16.7385595407044,"Approved","OW301"
"2023-05-02 03:00",16.7385603147981,"Approved","OW301"
"2023-05-02 04:00",16.7365610888918,"Approved","OW301"
"2023-05-02 05:00",16.7365618629854,"Approved","OW301"
"2023-05-02 06:00",16.7335626370791,"Approved","OW301"
"2023-05-02 07:00",16.7335634111728,"Approved","OW301"
"2023-05-02 08:00",16.7405641852664,"Approved","OW301"
"2023-05-02 09:00",16.7415649593601,"Approved","OW301"
"2023-05-02 10:00",16.7365657334537,"Approved","OW301"
"2023-05-02 11:00",16.7445665075474,"Approved","OW301"
"2023-05-02 12:00",16.7375672816411,"Approved","OW301"
"2023-05-02 13:00",16.7325680557347,"Approved","OW301"
"2023-05-02 14:00",16.7275688298284,"Approved","OW301"
"2023-05-02 15:00",16.7285696039221,"Approved","OW301"
"2023-05-02 16:00",16.7295703780157,"Approved","OW301"
"2023-05-02 17:00",16.7305711521094,"Approved","OW301"
"2023-05-02 18:00",16.7335719262031,"Approved","OW301"
"2023-05-02 19:00",16.7265727002967,"Approved","OW301"
"2023-05-02 20:00",16.7235734743904,"Approved","OW301"
"2023-05-02 21:00",16.7195742484841,"Approved","OW301"
"2023-05-02 22:00",16.7195750225777,"Approved","OW301"
"2023-05-02 23:00",16.7195757966714,"Approved","OW301"
"2023-05-03 00:00",16.7265765707651,"Approved","OW301"
"2023-05-03 01:00",16.7335773448587,"Approved","OW301"
"2023-05-03 02:00",16.7395781189524,"Approved","OW301"
"2023-05-03 03:00",16.7385788930461,"Approved","OW301"
"2023-05-03 04:00",16.7505796671397,"Approved","OW301"
"2023-05-03 05:00",16.7515804412334,"Approved","OW301"
"2023-05-03 06:00",16.7565812153271,"Approved","OW301"
"2023-05-03 07:00",16.7595819894207,"Approved","OW301"
"2023-05-03 08:00",16.7605827635144,"Approved","OW301"
"2023-05-03 09:00",16.7615835376081,"Approved","OW301"
"2023-05-03 10:00",16.7595843117017,"Approved","OW301"
"2023-05-03 11:00",16.7585850857954,"Approved","OW301"
"2023-05-03 12:00",16.762585859889,"Approved","OW301"
"2023-05-03 13:00",16.7545866339827,"Approved","OW301"
"2023-05-03 14:00",16.7575874080764,"Approved","OW301"
"2023-05-03 15:00",16.75858818217,"Approved","OW301"
"2023-05-03 16:00",16.7465889562637,"Approved","OW301"
"2023-05-03 17:00",16.7445897303574,"Approved","OW301"
"2023-05-03 18:00",16.740590504451,"Approved","OW301"
"2023-05-03 19:00",16.7365912785447,"Approved","OW301"
"2023-05-03 20:00",16.7345920526384,"Approved","OW301"
"2023-05-03 21:00",16.731592826732,"Approved","OW301"
"2023-05-03 22:00",16.7295936008257,"Approved","OW301"
"2023-05-03 23:00",16.7315943749194,"Approved","OW301"
"2023-05-04 00:00",16.726595149013,"Approved","OW301"
"2023-05-04 01:00",16.7245959231067,"Approved","OW301"
"2023-05-04 02:00",16.7265966972004,"Approved","OW301"
"2023-05-04 03:00",16.731597471294,"Approved","OW301"
"2023-05-04 04:00",16.7405982453877,"Approved","OW301"
"2023-05-04 05:00",16.7485990194814,"Approved","OW301"
"2023-05-04 06:00",16.756599793575,"Approved","OW301"
"2023-05-04 07:00",16.7586005676687,"Approved","OW301"
"2023-05-04 08:00",16.7626013417624,"Approved","OW301"
"2023-05-04 09:00",16.761602115856,"Approved","OW301"
"2023-05-04 10:00",16.7626028899497,"Approved","OW301"
"2023-05-04 11:00",16.7646036640433,"Approved","OW301"
"2023-05-04 12:00",16.757604438137,"Approved","OW301"
"2023-05-04 13:00",16.7496052122307,"Approved","OW301"
"2023-05-04 14:00",16.7476059863243,"Approved","OW301"
"2023-05-04 15:00",16.745606760418,"Approved","OW301"
"2023-05-04 16:00",16.7446075345117,"Approved","OW301"
"2023-05-04 17:00",16.7476083086053,"Approved","OW301"
"2023-05-04 18:00",16.754609082699,"Approved","OW301"
"2023-05-04 19:00",16.7516098567927,"Approved","OW301"
"2023-05-04 20:00",16.7446106308863,"Approved","OW301"
"2023-05-04 21:00",16.74061140498,"Approved","OW301"
"2023-05-04 22:00",16.7356121790737,"Approved","OW301"
"2023-05-04 23:00",16.7396129531673,"Approved","OW301"
"2023-05-05 00:00",16.743613727261,"Approved","OW301"
"2023-05-05 01:00",16.7496145013547,"Approved","OW301"
"2023-05-05 02:00",16.7536152754483,"Approved","OW301"
"2023-05-05 03:00",16.759616049542,"Approved","OW301"
"2023-05-05 04:00",16.7606168236357,"Approved","OW301"
"2023-05-05 05:00",16.7676175977293,"Approved","OW301"
"2023-05-05 06:00",16.768618371823,"Approved","OW301"
"2023-05-05 07:00",16.7726191459167,"Approved","OW301"
"2023-05-05 08:00",16.7606199200103,"Approved","OW301"
"2023-05-05 09:00",16.766620694104,"Approved","OW301"
"2023-05-05 10:00",16.7616214681977,"Approved","OW301"
"2023-05-05 11:00",16.7626222422913,"Approved","OW301"
"2023-05-05 12:00",16.767623016385,"Approved","OW301"
"2023-05-05 13:00",16.7666237904786,"Approved","OW301"
"2023-05-05 14:00",16.7666245645723,"Approved","OW301"
"2023-05-05 15:00",16.776625338666,"Approved","OW301"
"2023-05-05 16:00",16.7746261127596,"Approved","OW301"
"2023-05-05 17:00",16.7756268868533,"Approved","OW301"
"2023-05-05 18:00",16.779627660947,"Approved","OW301"
"2023-05-05 19:00",16.7766284350406,"Approved","OW301"
"2023-05-05 20:00",16.7776292091343,"Approved","OW301"
"2023-05-05 21:00",16.779629983228,"Approved","OW301"
"2023-05-05 22:00",16.7816307573216,"Approved","OW301"
"2023-05-05 23:00",16.7916315314153,"Approved","OW301"
"2023-05-06 00:00",16.793632305509,"Approved","OW301"
"2023-05-06 01:00",16.7896330796026,"Approved","OW301"
"2023-05-06 02:00",16.7896338536963,"Approved","OW301"
"2023-05-06 03:00",16.78863462779,"Approved","OW301"
"2023-05-06 04:00",16.7886354018836,"Approved","OW301"
"2023-05-06 05:00",16.7896361759773,"Approved","OW301"
"2023-05-06 06:00",16.785636950071,"Approved","OW301"
"2023-05-06 07:00",16.7846377241646,"Approved","OW301"
"2023-05-06 08:00",16.7826384982583,"Approved","OW301"
"2023-05-06 09:00",16.782639272352,"Approved","OW301"
"2023-05-06 10:00",16.7816400464456,"Approved","OW301"
"2023-05-06 11:00",16.7806408205393,"Approved","OW301"
"2023-05-06 12:00",16.780641594633,"Approved","OW301"
"2023-05-06 13:00",16.7826423687266,"Approved","OW301"
"2023-05-06 14:00",16.7836431428203,"Approved","OW301"
"2023-05-06 15:00",16.7946439169139,"Approved","OW301"
"2023-05-06 16:00",16.7876446910076,"Approved","OW301"
"2023-05-06 17:00",16.7856454651013,"Approved","OW301"
"2023-05-06 18:00",16.7906462391949,"Approved","OW301"
"2023-05-06 19:00",16.7896470132886,"Approved","OW301"
"2023-05-06 20:00",16.7876477873823,"Approved","OW301"
"2023-05-06 21:00",16.7876485614759,"Approved","OW301"
"2023-05-06 22:00",16.7886493355696,"Approved","OW301"
"2023-05-06 23:00",16.7896501096633,"Approved","OW301"
"2023-05-07 00:00",16.7896508837569,"Approved","OW301"
"2023-05-07 01:00",16.7906516578506,"Approved","OW301"
"2023-05-07 02:00",16.7906524319443,"Approved","OW301"
"2023-05-07 03:00",16.7906532060379,"Approved","OW301"
"2023-05-07 04:00",16.7916539801316,"Approved","OW301"
"2023-05-07 05:00",16.7926547542253,"Approved","OW301"
"2023-05-07 06:00",16.7906555283189,"Approved","OW301"
"2023-05-07 07:00",16.7916563024126,"Approved","OW301"
"2023-05-07 08:00",16.7916570765063,"Approved","OW301"
"2023-05-07 09:00",16.7926578505999,"Approved","OW301"
"2023-05-07 10:00",16.7926586246936,"Approved","OW301"
"2023-05-07 11:00",16.7936593987873,"Approved","OW301"
"2023-05-07 12:00",16.7936601728809,"Approved","OW301"
"2023-05-07 13:00",16.7936609469746,"Approved","OW301"
"2023-05-07 14:00",16.7956617210682,"Approved","OW301"
"2023-05-07 15:00",16.7996624951619,"Approved","OW301"
"2023-05-07 16:00",16.8006632692556,"Approved","OW301"
"2023-05-07 17:00",16.8006640433492,"Approved","OW301"
"2023-05-07 18:00",16.7986648174429,"Approved","OW301"
"2023-05-07 19:00",16.7996655915366,"Approved","OW301"
"2023-05-07 20:00",16.8006663656302,"Approved","OW301"
"2023-05-07 21:00",16.8006671397239,"Approved","OW301"
"2023-05-07 22:00",16.7986679138176,"Approved","OW301"
"2023-05-07 23:00",16.7956686879112,"Approved","OW301"
"2023-05-08 00:00",16.7946694620049,"Approved","OW301"
"2023-05-08 01:00",16.7976702360986,"Approved","OW301"
"2023-05-08 02:00",16.7946710101922,"Approved","OW301"
"2023-05-08 03:00",16.7966717842859,"Approved","OW301"
"2023-05-08 04:00",16.7996725583796,"Approved","OW301"
"2023-05-08 05:00",16.8066733324732,"Approved","OW301"
"2023-05-08 06:00",16.8006741065669,"Approved","OW301"
"2023-05-08 07:00",16.8006748806606,"Approved","OW301"
"2023-05-08 08:00",16.7976756547542,"Approved","OW301"
"2023-05-08 09:00",16.7976764288479,"Approved","OW301"
"2023-05-08 10:00",16.7956772029416,"Approved","OW301"
"2023-05-08 11:00",16.7956779770352,"Approved","OW301"
"2023-05-08 12:00",16.7946787511289,"Approved","OW301"
"2023-05-08 13:00",16.8066795252225,"Approved","OW301"
"2023-05-08 14:00",16.8036802993162,"Approved","OW301"
"2023-05-08 15:00",16.8026810734099,"Approved","OW301"
"2023-05-08 16:00",16.8006818475036,"Approved","OW301"
"2023-05-08 17:00",16.7986826215972,"Approved","OW301"
"2023-05-08 18:00",16.7976833956909,"Approved","OW301"
"2023-05-08 19:00",16.7976841697845,"Approved","OW301"